World > North America > United States > Mississippi

Ratliff, Mississippi Regional Weather

Lat: 34.44N, Lon: 88.66W
Wx Zone: MSZ016Web Search

Helpful Tip: Abbreviated, 7 Day, 14 Day Forecasts. There is a weather forecast for every taste.

Feedback


°F Click to change Ratliff hourly weather to Imperial units.Click to change Ratliff hourly weather to Metric units. °C
Ratliff Weather Map
UTC Time: 4/14/2021, 04:47
Your Time:

Ratliff, MS Regional Weather

Expires:202104140500;;520225
ASUS44 KJAN 140410
RWRMS 

MISSISSIPPI HOURLY WEATHER ROUNDUP
NATIONAL WEATHER SERVICE JACKSON MS
1100 PM CDT TUE APR 13 2021

NOTE: "FAIR: INDICATES FEW OR NO CLOUDS BELOW 12,000 FEET WITH NO
SIGNIFICANT WEATHER AND/OR OBSTRUCTIONS TO VISIBILITY.


MSZ003>006-009-014>017-022>024-029>033-037>039-140500-
NORTHEAST MISSISSIPPI
  
CITY           SKY/WX    TMP DP  RH WIND       PRES   REMARKS
ABERDEEN       FAIR      57  54  88 CALM      30.08S                  
COLUMBUS AFB   CLEAR     58  51  79 CALM      30.06S                  
CORINTH        CLEAR     59  55  88 CALM      30.06S                  
GOLDN TRIANGLE CLEAR     59  51  75 S3        30.08F                  
STARKVILLE     FAIR      55  52  88 CALM      30.09F                  
TUPELO         CLEAR     61  51  70 CALM      30.06S                  
$$


SKY/WX - Weather  TMP - Temperature  DP - Dew Point  RH - Relative Humidity
WIND - Wind Direction/Speed PRES - Barometric Pressure VSB - Visibility
WCI - Wind Chill Index E13G22 Wind - East Wind 13 mph/Gusts of 22 mph